Location: Kernascl�den
(48.0062°N, 3.3198°W)
Time: 22:09:11
(UTC+00:00)

DMSP B5D1-3 - Pass Details

Date: 21 January 2021
Orbit: 767 x 780 km, 98.5° (Epoch: 04 March)

Event Time Altitude Azimuth Distance (km) Brightness Sun altitude
Exits shadow 19:06:52 21° 21° (NNE) 1,688 6.0 -21.5°
Maximum altitude 19:10:20 73° 103° (ESE) 805 4.3 -22.0°
Drops below altitude 10° 19:15:25 10° 189° (S) 2,305 7.1 -22.9°
Sets 19:17:43 0° 191° (S) 3,229 7.9 -23.3°
